KNLC

Naval Air Station Lemoore

Airport
ICAO code
KNLC
Summary
ICAO Region
NAM
ICAO Territory
Location

Lemoore, California,

Coordinates
36° 19' 59" N , 119° 57' 7" W
KCC
Airport LOS
Parallel Runway Operation
Metar
KNLC 221056Z AUTO 28004KT 10SM CLR 23/13 A2980 RMK AO2 SLP088 T02330128 $

Description

Naval Air Station Lemoore, or NAS Lemoore, is a United States Navy base, the Navy's newest and largest Master Jet Base, located at Lemoore Station, California.

Climatology

Fresno is marked by a semi-arid climate (Köppen climate classification BSh), with mild, moderately wet winters and hot and dry summers, thus displaying some Mediterranean (Köppen climate classification CSa) characteristics.

Runways

Designator Length Width Surface Rops
14L/32R 4115 61 CON No/No
14R/32L 4115 61 CON No/No

Airport map

Aerial View

SKYbrary Partners:

Safety knowledge contributed by: